Tracking 20093 objects as of 14-Dec-2019
HD Live streaming from Space Station
objects crossing your sky now

COSMOS 2251 DEB

Track COSMOS 2251 DEB now!
10-day predictions


NORAD ID: 34401
Int'l Code: 1993-036QS
Perigee: 668.6 km
Apogee: 763.1 km
Inclination: 74.0 °
Period: 99.0 minutes
Semi major axis: 7086 km
RCS: 0.033 m2 (small)
Launch date: June 16, 1993
Source: Commonwealth of Independent States (former USSR) (CIS)
Launch site: PLESETSK MISSILE AND SPACE COMPLEX (PKMTR)

Note: This is SATELLITE DEBRIS
aabbcc
Your satellite tracking list
Your tracking list is empty




NASA's NSSDC Master Catalog

Two Line Element Set (TLE):
1 34401U 93036QS  19348.00234575  .00000913  00000-0  21153-3 0  9992
2 34401  74.0464 186.7758 0066668  88.1714  63.3284 14.55196721572148
Source of the keplerian elements: AFSPC